Probability
0 0 0 0 0 0 0 0 0 0 0 0 1 2 3 3 3 2 2 4 7 8 9 10 10 10 9 8 8 7 7 6 6 6 4 3 2 1 0 0 0 0 0
0 0 0 0 0 0 0 0 0 0 0 0 0 1 2 2 2 2 2 4 6 7 9 10 10 9 9 9 9 9 8 7 6 6 4 2 1 0 0 0 0 0 0
0 0 0 0 0 0 0 0 0 0 0 0 0 0 1 1 1 1 2 3 4 6 8 9 9 8 8 8 9 10 9 8 6 5 4 2 0 0 0 0 0 0 0
0 0 0 0 0 0 0 0 0 0 0 0 0 0 0 0 0 0 1 1 2 3 5 6 7 7 7 8 9 10 10 9 6 4 4 3 2 0 0 0 0 0 0
0 0 0 0 0 0 0 0 0 0 0 0 0 0 0 0 0 0 0 0 1 1 2 3 4 6 7 8 9 10 10 9 7 5 4 4 3 1 0 0 0 0 0
0 0 0 0 0 0 0 0 0 0 0 0 0 0 1 1 0 0 0 0 0 0 1 1 2 4 6 8 9 11 10 9 9 8 6 5 3 2 0 0 0 0 0
0 0 0 0 0 0 0 0 0 0 0 0 0 0 1 1 0 0 0 0 0 0 0 0 1 3 5 6 8 9 8 8 8 9 8 6 3 1 0 0 0 0 0
1 0 0 0 0 0 0 0 0 0 0 0 0 0 1 1 0 0 0 0 0 0 1 1 2 3 4 4 6 6 6 7 7 8 7 6 3 2 1 0 1 1 0
1 1 0 0 0 0 0 0 0 0 0 0 0 0 0 0 0 0 0 0 0 0 1 1 3 3 3 3 4 4 5 6 6 6 6 6 4 3 2 1 2 2 1
1 1 0 0 0 0 0 0 0 1 1 1 0 0 0 0 0 0 0 0 0 0 1 2 3 3 3 3 3 3 4 4 5 6 7 7 7 6 5 4 4 3 2
1 1 1 0 0 0 0 1 2 2 2 2 1 1 0 0 0 0 0 0 0 1 2 3 3 3 4 3 3 3 3 3 4 5 7 9 10 9 8 7 5 4 2
1 1 2 1 1 0 1 3 4 4 4 3 2 2 1 0 0 0 1 1 1 2 3 3 3 4 5 4 4 4 4 3 3 3 5 8 10 9 8 7 6 3 2
0 1 2 3 4 3 4 6 8 7 6 5 4 3 1 0 0 1 3 3 3 3 3 3 3 4 5 6 5 5 4 3 2 2 2 3 5 6 6 6 5 3 1
1 1 2 5 8 8 7 9 10 9 8 7 5 3 2 2 2 3 5 6 5 4 3 3 3 4 5 6 5 4 3 2 2 1 0 0 1 2 3 3 3 1 0
3 3 4 7 9 10 10 11 11 10 9 9 7 5 4 3 4 5 6 6 6 5 3 3 3 3 4 4 4 3 2 1 1 0 0 0 0 0 1 1 1 0 0
7 8 8 9 8 8 11 14 14 13 12 10 9 8 6 5 5 5 5 5 5 4 2 2 2 2 2 2 1 1 1 0 0 0 0 0 0 0 0 0 0 0 0
12 12 11 9 6 6 11 16 18 17 14 11 10 8 7 7 7 5 5 5 5 4 3 2 1 1 0 0 0 0 0 0 0 0 0 0 0 0 0 0 0 0 0
13 14 13 11 8 8 10 15 17 17 14 11 9 7 7 8 8 7 6 7 8 7 6 4 1 0 0 0 0 0 0 0 0 0 0 0 0 0 0 0 0 0 0
14 14 14 12 11 11 12 13 15 14 12 11 10 8 8 9 9 7 6 7 8 8 7 5 2 0 0 0 0 0 0 0 0 0 0 0 0 0 0 0 0 0 0
16 15 14 14 14 14 14 14 14 13 12 12 12 11 10 10 8 7 6 5 5 5 6 5 2 0 0 0 0 0 0 0 0 0 0 0 0 0 0 0 0 0 0
20 18 17 16 16 16 16 14 14 13 13 13 12 12 11 9 7 6 5 4 3 3 3 3 1 0 0 0 0 0 0 0 0 0 0 0 0 0 0 0 0 0 0
27 25 23 22 19 15 13 11 11 12 12 12 11 10 9 8 7 5 4 2 2 2 1 1 0 0 0 0 0 0 0 0 0 0 0 0 0 0 0 0 0 0 0
29 29 28 25 20 13 8 6 6 8 9 10 11 10 8 8 8 7 4 3 2 1 1 1 1 1 1 0 0 0 0 0 0 0 0 0 0 0 0 0 0 0 0
28 29 28 25 19 12 7 4 3 4 6 9 11 10 9 10 9 8 6 4 3 1 0 1 1 2 1 0 0 0 0 0 0 0 0 0 0 0 0 0 0 0 0
27 28 28 24 20 14 7 3 2 3 5 8 9 9 9 9 8 6 5 5 4 1 0 0 1 1 1 0 0 0 0 0 0 0 0 0 0 0 0 0 0 0 0
27 28 26 23 21 16 8 2 2 4 5 7 8 8 7 7 6 4 4 5 4 1 0 0 0 0 0 0 0 0 0 0 0 0 0 0 0 0 0 0 0 0 0
Wind_Speed
3 3 2 2 2 1 2 2 2 2 2 2 2 3 3 3 4 4 3 10 12 11 12 12 11 11 11 11 10 10 10 10 9 8 8 8 8 8 8 8 8 7 7
3 3 2 2 2 2 2 2 3 2 1 1 1 2 3 3 3 4 3 6 10 10 11 11 11 11 11 11 11 10 10 10 9 9 8 8 7 8 8 9 9 8 7
4 3 2 2 2 2 2 2 1 1 0 0 0 1 2 2 3 4 3 3 4 8 10 10 10 10 10 10 10 11 11 10 10 10 10 9 9 8 8 8 8 8 8
5 3 2 2 2 1 1 1 1 1 0 0 0 0 0 1 2 3 3 3 3 4 6 10 10 10 10 11 11 11 11 11 11 10 10 10 10 9 9 9 8 8 7
5 4 3 2 2 1 1 1 1 2 1 0 1 1 0 1 1 2 3 4 4 4 3 6 10 10 11 11 10 11 11 11 11 11 11 11 11 10 9 9 9 9 8
4 4 2 2 2 2 1 1 1 1 1 1 0 1 1 1 1 1 3 3 4 5 4 4 4 5 9 10 10 11 11 12 12 11 11 12 11 10 9 9 9 9 9
4 3 2 2 2 2 2 2 1 1 0 1 2 1 2 1 1 2 2 2 3 4 4 4 3 3 3 7 9 10 11 12 11 11 11 11 11 11 10 10 10 10 10
4 4 3 3 2 2 2 1 2 1 0 1 2 1 2 3 3 2 1 2 3 2 3 4 3 4 3 3 5 9 11 11 11 11 11 11 11 11 11 11 11 10 11
4 3 4 3 3 3 2 2 2 3 1 1 1 2 2 2 2 3 2 1 1 1 2 2 3 4 4 4 4 7 11 11 12 12 11 11 10 10 11 11 12 11 11
4 4 4 4 4 3 3 3 3 2 3 1 1 1 2 3 1 2 3 2 1 2 2 2 2 3 4 4 5 7 9 10 11 12 11 10 9 10 10 11 11 11 11
4 4 4 4 4 3 3 3 3 3 3 3 2 1 1 1 2 2 2 3 2 2 2 2 2 3 4 4 4 6 8 9 10 10 10 10 9 9 10 10 11 11 11
2 4 4 4 4 3 4 3 3 3 3 3 2 2 2 2 2 2 2 3 3 3 2 2 2 2 3 3 5 6 7 7 8 8 8 8 8 8 8 9 9 10 10
3 4 4 4 3 3 3 3 3 3 3 3 3 2 2 2 2 2 2 2 2 3 2 2 2 2 2 2 3 5 5 6 6 6 7 7 7 7 7 7 8 8 9
4 5 5 4 4 4 4 3 3 3 2 2 3 2 2 2 2 2 3 2 1 2 2 3 2 2 2 1 3 4 3 4 5 5 6 6 6 6 6 6 6 6 7
5 5 5 5 4 4 4 3 2 3 2 2 3 3 2 2 1 2 2 3 3 2 3 3 2 2 2 1 3 2 2 3 4 5 5 6 6 6 6 5 5 6 6
4 5 5 5 4 4 4 3 3 3 3 2 2 2 2 2 1 1 2 2 3 3 3 3 3 3 2 2 2 2 2 3 5 5 6 6 6 6 5 5 5 6 6
5 5 5 5 5 4 4 4 4 3 3 2 2 2 3 2 1 1 1 1 2 2 3 3 2 2 2 2 1 1 1 1 2 5 6 6 5 5 5 5 6 6 6
5 5 5 5 5 5 4 5 5 4 4 4 3 3 3 2 2 2 1 2 2 2 3 4 3 2 2 2 2 2 2 2 2 4 6 6 6 5 5 5 5 5 5
5 4 5 5 5 4 4 4 5 4 4 4 4 4 4 3 3 2 2 2 2 2 2 2 3 2 2 1 1 2 2 1 2 2 3 4 5 5 6 6 5 5 5
5 5 5 5 5 5 4 4 4 4 4 4 4 4 4 4 4 4 3 3 2 2 1 2 2 2 2 1 0 1 2 1 2 2 1 2 3 4 5 6 6 6 6
6 5 5 4 4 4 4 4 4 4 4 3 3 3 3 3 4 4 3 3 2 1 1 1 2 1 2 1 1 2 2 2 2 1 1 1 1 2 2 4 5 6 6
5 5 5 4 4 4 5 6 4 3 3 3 3 3 2 2 2 3 3 3 4 3 3 2 2 3 3 3 2 1 1 0 2 2 1 2 1 2 2 2 4 6 6
5 5 5 4 4 5 5 5 5 4 3 3 4 3 2 1 1 1 0 1 1 2 4 3 3 4 3 4 3 2 1 2 3 2 1 2 1 2 3 3 4 5 5
5 5 5 4 4 4 5 4 4 3 3 3 3 4 4 2 2 2 2 1 1 1 2 2 3 3 3 3 3 3 3 2 2 1 1 1 2 2 2 2 4 4 4
4 4 4 5 4 4 4 5 4 2 2 2 2 2 3 3 4 4 3 2 0 2 2 0 1 2 3 3 2 2 1 1 1 2 1 2 1 1 2 2 3 3 3
4 4 4 4 4 4 4 4 5 2 2 1 1 1 2 3 4 5 4 3 2 2 1 1 2 2 1 1 2 3 3 2 1 2 2 1 1 0 2 2 2 1 2
Wind_Direction
165 169 175 180 185 190 191 205 221 234 244 240 216 177 170 170 177 181 186 190 193 198 195 194 197 199 197 199 201 200 201 204 204 202 205 207 208 209 206 207 207 209 210
161 161 169 177 188 196 200 199 207 212 220 198 191 166 162 164 182 185 188 195 199 201 199 201 203 203 202 203 204 205 207 209 208 207 210 210 212 213 212 211 212 214 215
161 159 163 177 197 197 192 188 195 169 190 117 142 167 162 172 177 179 180 192 205 209 207 208 207 206 205 207 207 209 211 212 211 210 212 213 215 216 215 216 217 217 216
155 150 159 179 186 163 157 158 144 122 77 70 17 265 175 175 184 182 182 195 201 207 213 215 214 215 216 216 215 215 216 217 216 214 214 215 216 217 218 220 220 220 219
156 151 160 177 163 146 159 169 129 140 146 155 261 255 235 200 201 197 195 204 209 212 214 222 223 221 223 223 221 221 221 221 220 218 218 218 218 219 220 221 222 221 222
160 151 159 169 149 134 132 125 130 138 155 170 324 9 295 255 232 206 211 209 210 214 215 221 224 227 227 229 226 226 227 226 223 221 221 221 222 221 220 221 223 224 224
164 157 156 153 150 145 156 154 137 127 109 93 73 7 332 293 250 238 222 211 220 217 206 210 209 212 227 231 231 230 231 230 226 223 224 224 224 223 220 221 223 223 225
172 172 161 157 154 134 128 144 135 124 157 121 127 94 349 339 322 277 252 221 226 216 210 212 209 213 220 227 228 228 231 233 232 230 229 228 226 225 223 224 225 224 225
173 166 165 159 156 153 175 188 168 156 182 239 165 148 156 240 305 321 308 276 245 229 233 221 219 223 221 224 230 234 234 234 236 237 237 235 227 224 226 228 228 227 226
176 172 169 169 167 172 185 196 181 176 166 197 245 206 188 173 175 314 322 313 285 250 246 239 232 233 230 226 228 229 231 231 236 241 242 238 231 229 229 230 230 229 228
190 182 175 171 174 178 183 190 185 183 177 182 195 200 199 190 181 181 273 303 314 280 249 241 238 241 235 228 231 233 229 229 232 237 243 239 233 233 231 230 231 232 231
202 196 182 177 181 184 189 194 188 183 188 185 190 185 178 181 197 186 223 259 277 282 272 255 244 242 240 234 237 237 229 228 228 232 237 233 234 234 232 234 236 238 237
204 208 197 185 186 192 190 183 179 185 187 185 197 205 201 203 190 179 191 241 266 281 289 281 257 247 253 238 244 238 226 220 216 219 223 229 229 231 233 236 240 242 242
205 202 194 191 192 192 193 179 179 191 186 196 207 204 209 225 199 187 183 187 260 291 294 273 291 259 261 250 244 227 224 207 204 208 216 221 227 231 228 229 235 240 243
201 197 194 193 196 196 188 176 191 202 194 203 211 204 207 228 209 203 189 180 182 246 274 261 260 269 263 252 252 230 225 215 210 211 216 216 217 221 221 223 229 234 236
199 188 189 191 194 193 188 185 196 204 201 223 214 200 212 225 222 208 196 200 193 197 241 252 240 249 258 261 242 229 232 225 219 219 222 220 221 224 224 225 226 229 232
189 188 189 190 196 200 195 190 200 199 203 222 224 203 223 218 211 224 208 202 209 194 235 271 264 258 244 256 284 244 246 245 247 233 226 223 224 228 228 227 226 228 236
196 193 189 191 197 195 191 192 202 202 201 210 218 214 233 227 222 222 205 215 222 209 204 250 272 269 247 240 253 251 243 234 239 238 227 224 224 227 230 229 231 230 235
199 196 190 193 196 196 195 199 200 203 208 213 212 212 226 212 224 225 215 222 229 229 203 215 258 262 263 265 277 285 266 267 253 249 233 228 225 227 230 230 231 232 235
195 196 195 199 197 196 198 200 199 206 214 219 218 213 215 210 215 216 220 222 222 227 226 221 248 266 272 280 233 276 298 292 281 281 278 242 229 230 232 231 232 234 239
201 195 191 198 202 200 204 199 202 204 209 217 227 226 224 219 219 215 215 218 209 213 227 226 240 255 261 267 247 238 251 275 282 261 277 277 258 261 251 241 239 235 233
199 190 193 196 204 220 210 198 190 201 207 210 219 231 233 226 224 218 216 213 196 195 213 221 229 227 240 235 231 226 214 248 278 266 218 269 237 250 259 251 252 244 237
195 192 196 196 208 218 194 193 198 198 204 211 212 212 223 224 198 139 106 61 240 223 207 200 212 225 221 219 199 215 229 226 238 241 191 257 262 261 270 265 257 248 243
190 188 190 192 195 207 191 196 200 207 212 218 217 209 199 208 204 159 142 115 286 283 254 220 207 218 215 208 196 201 210 225 269 268 176 218 278 278 292 289 273 261 251
185 183 186 190 191 212 198 192 188 199 208 217 212 206 194 198 200 170 151 160 316 324 333 279 219 222 219 212 189 143 141 124 291 284 226 176 244 289 292 279 289 285 274
188 179 186 194 191 205 197 187 181 186 194 215 225 231 215 201 196 182 173 171 190 251 306 9 2 348 324 248 204 177 178 176 205 260 248 176 211 86 314 289 283 287 280